Location: Dos Palmas
(32.4468°N, 116.8732°W)
Time: 05:44:11
(UTC+00:00)

Cosmos 407 Rocket - Pass Details

Date: 20 June 2021
Orbit: 744 x 786 km, 74.1° (Epoch: 29 July)

Event Time Altitude Azimuth Distance (km) Brightness Sun altitude
Rises 03:35:02 0° 340° (NNW) 3,259 7.7 -7.6°
Reaches altitude 10° 03:37:26 10° 339° (NNW) 2,323 7.0 -8.0°
Maximum altitude 03:42:41 71° 256° (WSW) 811 3.8 -8.9°
Drops below altitude 10° 03:47:50 10° 173° (S) 2,281 5.6 -9.8°
Enters shadow 03:49:33 - 171° (S) 2,950 6.1 -10.1°
